EHI
0 0 0 0 0 0 0 0 0 0 0 0 0 2 6 10 14 17 17 18 19 19 18 15 11 9 12 17 21 27 34 35 31 27 24 20 17 17 19 18 15 12 11 11
0 0 0 0 0 0 0 0 0 0 0 2 3 6 9 13 16 18 17 17 19 20 19 17 14 12 14 19 21 25 31 35 33 28 24 20 17 17 19 18 16 14 14 14
0 0 0 0 0 0 0 1 1 1 2 5 9 11 14 17 20 19 17 16 17 18 18 18 16 15 17 20 23 25 29 34 34 30 25 21 19 18 19 19 19 17 17 18
0 0 0 0 0 0 0 1 3 3 4 8 12 14 16 20 22 22 18 16 16 16 17 17 16 15 18 22 25 26 28 31 32 32 28 24 21 19 20 22 22 19 16 16
0 0 0 0 0 0 0 1 3 3 5 9 13 16 17 20 22 23 22 20 18 19 20 19 17 17 20 22 23 24 25 27 29 30 29 27 23 21 23 25 24 19 14 13
0 0 0 0 0 0 0 1 2 2 3 8 13 17 19 21 23 23 23 24 23 23 24 23 21 22 22 21 19 20 22 25 27 28 29 29 27 25 26 27 25 19 14 12
0 0 0 0 1 0 0 0 1 1 2 6 11 16 20 22 22 21 21 23 24 24 25 24 23 23 22 18 17 18 21 25 29 31 31 32 31 31 31 30 27 21 14 11
0 0 0 0 0 0 0 0 1 1 2 6 10 16 21 21 18 16 17 18 19 21 22 21 21 21 19 16 16 17 19 23 28 33 34 34 34 34 33 31 29 23 17 14
1 0 0 0 0 0 1 1 2 2 4 7 12 16 17 16 13 11 12 12 13 15 17 16 17 17 15 14 14 15 16 18 21 26 30 32 33 32 31 29 27 23 19 16
2 1 1 1 0 1 2 2 3 4 6 11 14 14 12 10 8 8 9 9 10 10 11 13 13 13 13 13 12 13 14 14 15 19 25 28 29 27 25 25 24 21 18 17
5 4 3 3 2 3 4 4 5 7 10 13 15 13 11 9 8 8 8 9 9 8 9 10 10 11 12 12 11 11 12 13 13 16 21 25 24 20 17 17 17 16 15 14
6 6 6 5 5 6 6 5 7 11 14 15 15 13 11 10 9 9 9 9 8 7 7 8 8 9 11 11 10 10 10 12 13 14 18 20 18 14 10 8 7 7 8 8
5 5 6 6 6 7 8 9 10 13 15 15 15 13 12 11 10 9 9 8 6 5 6 6 6 8 9 10 9 9 10 11 11 12 15 17 15 12 8 4 2 1 2 2
3 4 6 6 8 10 11 13 14 14 14 14 13 12 11 10 9 7 6 6 5 6 6 5 5 6 7 8 8 9 9 9 10 11 14 16 16 15 11 7 3 1 0 0
2 4 5 7 10 12 13 14 15 13 11 10 9 8 7 7 6 5 5 5 6 7 6 6 6 6 7 7 7 8 8 7 7 10 13 16 17 17 14 10 6 3 1 0
1 2 5 7 10 11 12 13 12 9 6 5 5 4 4 3 3 4 5 6 7 6 6 5 5 5 6 6 7 6 5 5 6 8 12 14 16 17 15 12 9 6 3 2
0 1 3 5 7 9 10 9 7 5 3 3 3 3 2 1 1 3 5 6 5 4 4 3 3 3 4 5 5 5 4 4 6 8 10 11 13 15 15 13 10 8 5 4
0 0 1 3 3 4 5 4 3 3 3 3 2 2 1 0 1 3 4 4 4 3 3 3 3 3 3 4 4 3 3 4 5 7 8 8 10 14 15 13 10 8 7 6
0 0 0 1 1 1 1 1 1 1 2 1 1 1 0 1 2 2 2 1 2 2 3 3 4 4 4 3 3 3 3 3 4 5 6 7 9 13 15 13 9 7 7 6
1 1 1 1 1 0 0 0 0 1 1 0 0 0 1 1 2 1 0 0 1 1 1 2 3 3 3 3 3 4 4 3 4 5 6 7 9 12 14 12 10 8 6 6
2 2 2 2 1 0 0 0 0 0 0 0 0 0 1 1 1 0 0 0 0 0 0 1 1 1 1 2 3 3 4 4 5 5 6 6 8 11 12 12 11 9 8 6
2 2 2 1 1 0 0 0 0 0 0 0 0 0 1 1 0 0 1 0 0 0 0 0 0 0 1 2 3 3 3 4 4 4 4 4 6 8 11 12 11 10 8 7
1 1 1 0 0 0 0 0 0 0 0 0 0 0 0 0 0 1 1 0 0 0 0 0 0 0 1 2 2 2 2 2 3 3 3 3 4 7 9 10 10 9 8 6
0 0 0 0 0 0 0 0 0 0 0 0 0 0 0 0 0 1 0 0 0 0 0 0 0 0 0 1 1 1 1 1 1 2 2 3 4 5 7 8 8 7 6 4
0 0 0 0 0 0 0 0 0 0 0 0 0 0 0 0 0 0 0 0 0 0 0 0 0 0 0 0 0 0 1 1 1 1 2 2 3 4 5 6 6 5 4 3
0 0 0 0 0 0 0 0 0 0 0 0 0 0 0 0 0 0 0 0 0 0 0 0 0 0 0 0 0 1 2 2 1 1 2 2 2 3 4 5 5 4 2 1
0 0 0 0 0 0 0 0 0 0 0 0 0 0 0 0 0 0 0 0 0 0 0 0 0 0 0 0 0 1 2 2 1 1 1 1 2 3 3 3 4 3 1 0
Wind_Speed
3 4 1 2 3 1 1 5 7 6 5 6 5 6 6 7 6 6 5 5 6 7 6 5 5 5 6 6 6 7 7 7 7 6 5 4 4 3 3 3 3 2 2 2
3 3 2 3 4 1 1 2 4 4 3 4 2 4 5 6 7 6 5 5 5 6 6 6 6 6 5 5 5 6 7 7 6 5 5 5 4 3 3 3 2 2 3 3
2 4 3 3 2 1 1 2 5 5 6 4 5 5 6 6 6 6 5 4 5 5 6 6 6 6 6 5 5 5 6 6 5 6 5 5 5 3 4 3 3 2 3 3
0 3 3 7 2 2 3 1 1 4 5 6 7 5 4 5 7 6 4 4 3 3 3 3 3 3 4 3 4 4 4 5 5 5 5 4 4 4 4 3 3 3 3 3
2 1 4 5 3 0 2 1 1 4 5 5 7 7 5 2 5 5 4 4 3 3 3 3 3 3 4 3 2 3 4 4 5 6 5 5 5 4 4 3 3 3 3 3
3 2 5 6 5 2 6 1 3 3 5 4 5 4 1 1 4 5 4 4 3 3 3 3 3 3 4 3 2 3 4 5 5 5 5 5 5 4 3 3 3 3 2 2
3 3 5 6 5 2 3 5 2 2 4 3 3 5 4 3 4 4 5 4 3 4 3 2 2 4 4 3 3 4 3 3 4 5 5 5 4 3 3 3 3 2 2 2
4 3 6 5 2 2 5 3 2 4 3 4 5 5 5 4 3 4 4 4 4 3 2 1 2 4 3 2 2 1 2 2 3 3 4 4 3 3 3 4 3 3 2 2
6 6 5 2 2 3 4 3 2 3 3 5 6 4 4 3 2 2 3 3 2 3 2 2 2 3 2 2 1 0 1 1 2 2 3 3 4 4 3 3 3 3 3 3
1 2 2 0 1 2 3 4 3 4 4 5 5 5 3 3 2 1 1 2 2 3 3 1 1 1 1 1 1 1 0 1 1 2 2 2 3 3 3 4 3 3 3 3
0 2 3 4 2 2 2 3 3 4 4 4 5 4 3 2 2 1 1 1 2 3 2 1 0 0 0 0 1 1 0 1 1 2 3 3 2 3 3 4 5 5 4 4
4 4 2 3 2 1 3 3 3 4 4 3 4 4 3 2 2 1 1 1 1 2 1 1 0 1 1 0 1 1 1 2 1 1 2 2 2 0 1 2 3 5 5 5
4 3 2 2 1 1 2 2 2 3 4 3 3 4 3 2 1 1 1 2 2 2 2 1 0 1 1 1 0 1 1 2 2 2 2 2 2 3 2 2 2 2 4 5
1 0 1 1 1 0 2 2 2 3 2 3 3 3 3 2 2 2 2 3 2 2 1 1 0 2 2 1 0 1 2 3 3 2 2 2 3 3 3 3 2 2 2 3
2 1 2 1 0 1 1 2 3 2 1 1 2 3 3 3 2 3 2 2 1 1 1 1 1 3 3 1 1 1 2 2 2 2 2 2 2 2 2 3 3 2 1 2
3 3 1 1 0 1 1 2 2 2 2 2 2 2 3 3 2 2 2 2 2 1 2 1 2 3 2 1 1 2 2 3 3 2 1 2 2 2 2 3 3 2 3 2
2 2 2 1 2 2 2 3 3 3 3 3 4 3 2 2 1 1 2 2 2 2 2 2 3 3 2 1 1 2 2 2 3 2 1 1 2 2 2 3 3 3 3 3
5 5 5 4 3 3 3 3 3 3 4 4 3 3 3 3 3 3 3 2 1 1 2 2 2 2 2 2 2 2 1 1 1 2 2 1 2 2 2 2 3 3 2 2
3 3 3 2 3 3 3 3 3 3 3 3 3 3 4 4 4 3 2 2 2 2 4 3 3 2 3 3 2 1 1 2 2 2 2 3 2 2 3 3 3 3 3 2
2 2 2 2 2 2 3 2 2 2 2 2 2 3 3 3 3 3 2 2 3 4 4 3 3 2 3 3 3 2 2 2 2 2 2 2 2 3 3 3 3 2 2 2
2 2 2 2 2 2 2 2 2 2 2 2 3 3 4 4 4 3 3 3 4 3 3 3 3 2 3 3 3 2 2 2 2 2 2 2 2 2 3 3 3 2 2 2
2 2 2 2 1 2 2 3 3 3 3 2 3 3 3 4 4 3 4 4 4 3 2 2 2 3 3 3 2 2 2 2 2 2 2 2 2 3 3 3 2 2 2 2
3 2 3 3 3 3 3 3 3 3 3 3 3 3 3 3 3 3 3 3 3 4 3 2 3 3 3 2 1 2 2 2 2 2 3 3 3 3 3 3 2 2 2 2
3 3 3 2 1 1 1 2 1 2 2 3 3 3 3 2 2 2 3 4 5 4 2 3 4 3 2 1 1 1 2 2 2 2 3 2 2 2 3 3 2 2 2 2
2 2 1 1 0 1 2 2 0 1 0 1 1 2 2 2 2 2 2 2 3 3 2 2 3 4 2 1 2 2 2 3 3 2 2 2 2 2 2 2 2 2 2 2
2 1 2 1 1 1 1 1 1 1 0 0 1 1 1 1 1 1 1 2 2 2 2 2 2 2 2 2 2 2 2 2 2 1 1 1 1 2 2 2 3 2 2 2
1 1 1 1 1 1 0 1 1 1 1 1 0 1 0 1 1 1 1 1 1 1 1 1 1 1 1 1 1 1 1 1 1 1 1 1 1 2 2 2 2 2 2 2
Wind_Direction
226 252 281 300 295 325 132 176 176 205 201 225 200 174 156 147 140 127 130 142 154 163 168 169 173 181 181 185 185 181 178 187 195 198 194 191 196 202 201 195 196 183 178 190
345 332 348 336 316 282 241 144 158 156 215 225 165 121 123 133 135 135 146 152 161 166 170 173 176 183 186 186 184 175 181 195 196 190 190 194 200 199 191 193 191 175 185 191
299 314 13 300 280 180 200 193 162 185 209 161 114 121 137 136 132 141 153 150 159 171 177 183 187 183 182 187 173 169 185 192 190 189 192 199 198 190 194 195 186 190 202 196
73 30 232 247 258 120 108 39 143 154 157 150 146 141 130 132 133 137 147 150 158 161 170 178 173 163 164 145 151 166 180 186 184 184 190 190 187 193 196 187 188 202 208 205
117 186 269 293 312 328 113 6 343 136 134 134 125 86 46 66 135 148 151 147 152 149 152 147 145 148 132 123 136 161 179 187 188 185 187 189 195 201 194 181 190 203 204 202
140 167 226 250 287 294 100 43 309 117 139 148 120 111 211 144 110 111 104 102 105 105 109 123 144 140 131 135 151 196 198 196 189 182 183 190 198 197 186 181 197 200 211 214
169 206 256 268 295 25 118 220 247 114 133 132 136 173 169 122 93 101 102 96 95 93 95 126 146 131 133 141 193 225 210 192 190 188 191 193 191 179 170 178 183 189 208 229
155 179 246 288 26 123 202 201 119 97 101 115 119 113 109 104 100 95 93 88 93 92 84 86 115 127 134 175 221 227 192 176 194 199 196 184 170 175 174 173 179 200 213 238
180 205 233 247 166 180 155 119 102 102 109 119 118 118 119 117 119 122 116 110 109 109 89 58 75 114 148 225 199 160 140 187 205 203 195 180 177 184 184 185 191 207 209 226
64 283 269 317 135 110 118 127 124 125 128 125 130 137 140 139 141 140 139 125 113 101 87 47 32 87 180 222 154 122 132 244 216 200 202 192 184 188 191 198 205 207 211 220
39 287 9 17 34 83 83 86 89 103 118 132 128 134 138 140 148 169 169 127 116 122 122 133 72 32 293 270 120 130 221 252 235 219 203 198 200 204 202 208 206 202 212 210
226 237 183 251 280 108 98 91 97 101 94 113 131 144 141 150 158 155 157 143 134 136 145 176 54 336 322 304 145 162 222 262 242 234 222 199 190 259 330 222 227 221 218 211
218 248 227 235 310 69 109 112 112 123 138 136 144 151 146 141 145 158 179 182 180 188 186 179 26 331 303 277 144 191 232 256 255 239 225 206 194 197 230 299 313 258 241 232
264 32 324 317 283 281 117 109 107 105 127 149 150 144 138 142 155 173 204 212 195 181 181 171 197 282 281 268 242 269 265 261 255 237 221 216 210 210 208 213 247 275 278 258
309 315 220 226 264 210 127 102 99 118 143 168 153 156 153 161 191 212 216 188 146 145 199 216 265 282 293 290 267 281 282 272 270 255 233 223 215 207 212 213 217 232 270 291
293 327 289 88 42 219 148 128 152 196 207 209 198 198 188 176 185 206 203 163 148 188 231 227 261 277 293 291 286 290 285 289 292 274 248 222 212 205 218 214 213 218 225 228
237 264 247 239 248 242 218 203 200 213 220 220 214 205 182 164 174 227 238 194 178 207 219 218 251 272 280 277 269 272 284 293 297 295 245 218 210 205 217 217 212 217 226 217
202 219 218 215 224 241 246 235 221 221 226 226 208 187 185 189 204 222 223 202 185 255 260 242 243 264 273 269 255 252 251 257 270 263 248 228 223 220 210 216 218 216 219 206
215 230 244 244 232 228 230 233 230 222 223 209 196 202 208 205 205 208 205 187 203 253 268 258 256 262 271 274 272 248 243 240 244 252 243 232 227 219 212 209 221 218 203 197
251 234 244 266 268 245 233 227 211 211 225 210 200 205 210 219 210 201 191 214 229 232 238 238 239 249 258 267 264 243 240 237 231 243 246 237 229 228 222 209 207 213 208 200
294 262 253 257 262 258 237 212 197 226 238 220 213 219 219 222 214 201 195 239 260 247 236 235 231 239 244 253 258 238 230 233 234 237 238 237 228 224 219 211 207 211 212 203
299 286 263 258 272 278 246 218 205 204 215 222 225 224 221 224 220 215 217 223 234 229 224 231 234 240 251 249 230 227 224 226 234 235 229 227 217 210 215 211 204 202 196 194
285 276 261 248 232 229 233 228 210 195 200 209 213 219 222 224 214 205 232 236 218 217 216 228 235 249 259 241 225 219 222 230 235 233 228 224 216 206 205 206 199 192 191 194
273 268 250 240 214 184 230 248 224 208 201 210 214 213 210 215 245 233 210 210 208 209 212 221 226 233 228 221 219 228 234 236 239 237 230 224 216 202 196 196 194 194 192 187
275 281 271 237 243 233 221 218 254 312 340 243 241 233 221 204 207 218 202 188 187 192 211 224 222 226 224 229 232 244 249 249 245 237 228 211 203 195 188 186 187 181 178 181
258 256 254 241 231 230 210 182 187 226 229 318 307 265 235 216 194 184 180 193 192 201 219 232 227 228 225 228 234 243 252 256 248 242 228 203 184 177 180 185 183 175 176 173
334 334 338 340 311 284 244 174 170 198 179 154 206 284 199 171 167 179 192 208 221 218 224 237 225 214 208 215 226 238 245 254 252 238 243 218 192 188 191 179 163 153 152 151